Flag for Poland Weather past 2 weeks in Rybnik, Poland

Now
34 °F

Light snow. Fog.


Feels Like: 28 °F
Forecast: 26 / 34 °F
Wind: 7 mph from Southwest

Location: Katowice Airport

Current Time: Jan 27, 2015 at 8:06:34 PM

Latest Report: Jan 27, 2015 at 7:30 PM


Visibility: 2 mi

Pressure: 29.92 "Hg

Humidity: 93%

Dew point: 32 °F

Location of RybnikLocation

Historic Weather in Rybnik — Graph

°F

Rybnik temperature yesterday

Maximum temperature yesterday: 32 °F (at 1:00 AM)
Minimum temperature yesterday: 23 °F (at 9:00 PM)
Average temperature yesterday: 29 °F

Past Weeks' High & Low Weather Summary

 TemperatureHumidityPressure
High52 °F (Jan 16, 1:30 PM)100% (Jan 17, 7:30 PM)30.24 "Hg (Jan 17, 7:30 PM)
Low23 °F (Jan 26, 9:00 PM)32% (Jan 13, 6:00 PM)29.71 "Hg (Jan 17, 5:00 AM)
Average35 °F87%29.98 "Hg
* Reported Jan 12 7:00 PM — Jan 27 7:00 PM, Rybnik, Weather by CustomWeather, © 2014

Note: Actual official high and low records may vary slightly from our data, if they occured in-between our weather recording intervals... More about our weather records

Advertising

Rybnik weather history for previous 24 hours

 ConditionsComfort  
Time TempWeatherWind HumidityBarometerVisibility
7:00 PM
Jan 27
34 °FFog.7 mph93%29.92 "Hg2 mi
6:30 PM34 °FFog.8 mph93%29.92 "Hg2 mi
6:00 PM34 °FDrizzle. Fog.8 mph93%29.92 "Hg3 mi
5:30 PM34 °FPartly cloudy.10 mph93%29.92 "Hg4 mi
5:00 PM34 °FFog.10 mph93%29.89 "Hg3 mi
4:30 PM34 °FPartly cloudy.10 mph93%29.89 "Hg2 mi
4:00 PM34 °FFog.9 mph93%29.89 "Hg2 mi
3:30 PM32 °FDrizzle. Ice fog.9 mph100%29.89 "Hg1 mi
3:00 PM32 °FDrizzle. Ice fog.10 mph100%29.86 "Hg1 mi
2:30 PM32 °FIce fog.10 mph100%29.86 "Hg2 mi
2:00 PM32 °FLight freezing rain. Ice fog.9 mph100%29.86 "Hg1 mi
1:30 PM32 °FLight snow. Ice fog.10 mph93%29.83 "Hg2 mi
1:00 PM30 °FLight snow. Ice fog.10 mph100%29.83 "Hg1 mi
12:30 PM30 °FLight snow. Ice fog.13 mph100%29.83 "Hg1 mi
12:00 PM30 °FLight snow. Ice fog.14 mph100%29.83 "Hg1 mi
11:30 AM30 °FLight snow. Ice fog.13 mph100%29.83 "Hg1 mi
11:00 AM30 °FLight snow. Ice fog.14 mph93%29.83 "Hg1 mi
10:30 AM30 °FLight snow. Ice fog.12 mph93%29.83 "Hg1 mi
10:00 AM30 °FLight snow. Ice fog.12 mph93%29.83 "Hg1 mi
9:30 AM28 °FLight snow. Ice fog.12 mph100%29.83 "Hg1 mi
9:00 AM28 °FLight snow. Ice fog.12 mph93%29.83 "Hg1 mi
8:30 AM28 °FLight snow. Ice fog.10 mph93%29.83 "Hg1 mi
8:00 AM28 °FLight snow. Ice fog.9 mph93%29.83 "Hg1 mi
7:30 AM28 °FLight snow. Ice fog.7 mph86%29.86 "Hg2 mi
7:00 AM27 °FLight snow. Ice fog.7 mph93%29.86 "Hg1 mi
6:30 AM28 °FPassing clouds.7 mph80%29.86 "HgN/A
6:00 AM28 °FClear.7 mph80%29.86 "Hg6 mi
5:30 AM27 °FClear.7 mph86%29.86 "Hg5 mi
5:00 AM27 °FClear.8 mph86%29.86 "Hg5 mi
4:30 AM27 °FClear.6 mph80%29.89 "Hg4 mi
4:00 AM27 °FClear.5 mph80%29.89 "Hg4 mi
3:30 AM27 °FClear.5 mph80%29.89 "Hg4 mi
3:00 AM27 °FClear.6 mph80%29.92 "Hg4 mi
2:30 AM27 °FClear.5 mph86%29.92 "Hg4 mi
2:00 AM27 °FClear.5 mph86%29.95 "Hg4 mi
1:30 AM27 °FClear.3 mph86%29.95 "Hg4 mi
1:00 AM27 °FIce fog.5 mph86%29.98 "Hg3 mi
12:30 AM25 °FIce fog.3 mph93%29.98 "Hg3 mi
12:00 AM27 °FIce fog.5 mph86%30.01 "Hg3 mi
11:30 PM
Jan 26
27 °FIce fog.5 mph86%30.01 "Hg3 mi
11:00 PM27 °FIce fog.6 mph86%30.04 "Hg3 mi
10:30 PM25 °FIce fog.6 mph93%30.04 "Hg2 mi
10:00 PM23 °FIce fog.6 mph100%30.07 "Hg2 mi
9:30 PM23 °FIce fog.5 mph93%30.07 "Hg1 mi
9:00 PM23 °FIce fog.5 mph100%30.07 "Hg1 mi
8:30 PM25 °FIce fog.5 mph93%30.09 "Hg1 mi
8:00 PM25 °FIce fog.5 mph93%30.09 "Hg1 mi
Weather by CustomWeather, © 2014

See weather overviewHow to use our weather pages